Flag for U.S.A. Weather past 2 weeks in Provincetown, Massachusetts, U.S.A.

Now
63 °F

Passing clouds.


Feels Like: 63 °F
Forecast: 63 / 70 °F
Wind: 8 mph from South

Location: Provincetown Weather Reporting Station

Current Time: Sep 20, 2014 at 10:59:21 PM

Latest Report: Sep 20, 2014 at 10:35 PM


Visibility: 10 mi

Pressure: 30.15 "Hg

Humidity: 83%

Dew point: 57 °F

Location of ProvincetownLocation

Historic Weather in Provincetown — Graph

°F

Provincetown temperature yesterday

Maximum temperature yesterday: 59 °F (at 12:15 AM)
Minimum temperature yesterday: 36 °F (at 10:55 PM)
Average temperature yesterday: 52 °F

Past Weeks' High & Low Weather Summary

 TemperatureHumidityPressure
High81 °F (Sep 6, 1:35 PM)94% (Sep 5, 11:55 PM)30.45 "Hg (Sep 5, 11:55 PM)
Low36 °F (Sep 19, 10:55 PM)44% (Sep 19, 2:35 PM)29.78 "Hg (Sep 6, 6:15 PM)
Average62 °F74%30.12 "Hg
* Reported Sep 5 9:15 PM — Sep 20 9:55 PM, Provincetown, Weather by CustomWeather, © 2014

Note: Actual official high and low records may vary slightly from our data, if they occured in-between our weather recording intervals... More about our weather records

Advertising

Provincetown weather history for previous 24 hours

 ConditionsComfort  
Time TempWeatherWind HumidityBarometerVisibility
9:55 PM
Sep 20
63 °FPassing clouds.6 mph77%30.17 "Hg10 mi
9:35 PM63 °FPassing clouds.7 mph77%30.17 "Hg10 mi
9:15 PM63 °FClear.5 mph83%30.18 "Hg10 mi
8:55 PM63 °FClear.6 mph77%30.18 "Hg10 mi
8:35 PM63 °FClear.7 mph83%30.18 "Hg10 mi
8:15 PM63 °FClear.7 mph83%30.18 "Hg10 mi
7:55 PM63 °FClear.N/A83%30.18 "Hg10 mi
7:35 PM63 °FSunny.9 mph77%30.18 "Hg10 mi
7:15 PM63 °FSunny.9 mph77%30.18 "Hg10 mi
6:55 PM64 °FSunny.10 mph73%30.18 "Hg10 mi
6:35 PM64 °FSunny.9 mph73%30.18 "Hg10 mi
6:15 PM64 °FSunny.10 mph73%30.19 "Hg10 mi
5:55 PM64 °FSunny.12 mph73%30.19 "Hg10 mi
5:35 PM66 °FSunny.14 mph64%30.19 "Hg10 mi
4:55 PM66 °FSunny.13 mph64%30.20 "Hg10 mi
4:35 PM68 °FSunny.16 mph60%30.20 "Hg10 mi
4:15 PM68 °FSunny.15 mph60%30.20 "Hg10 mi
3:55 PM68 °FSunny.14 mph60%30.21 "Hg10 mi
3:35 PM68 °FSunny.15 mph60%30.21 "Hg10 mi
3:15 PM68 °FSunny.15 mph64%30.22 "Hg10 mi
2:55 PM66 °FSunny.14 mph64%30.23 "Hg10 mi
2:35 PM66 °FSunny.12 mph64%30.24 "Hg10 mi
1:55 PM66 °FSunny.13 mph64%30.25 "Hg10 mi
9:35 AM61 °FSunny.10 mph59%30.36 "Hg10 mi
9:15 AM61 °FSunny.10 mph59%30.36 "Hg10 mi
8:55 AM61 °FSunny.7 mph59%30.37 "Hg10 mi
8:35 AM59 °FSunny.9 mph63%30.37 "Hg10 mi
7:55 AM55 °FSunny.8 mph72%30.37 "Hg10 mi
7:35 AM55 °FPassing clouds.5 mph67%30.38 "Hg10 mi
7:15 AM52 °FPassing clouds.5 mph77%30.39 "Hg10 mi
6:55 AM45 °FPassing clouds.6 mph76%30.39 "Hg10 mi
6:35 AM46 °FPassing clouds.5 mph76%30.39 "Hg10 mi
6:15 AM46 °FPassing clouds.5 mph76%30.39 "Hg10 mi
5:55 AM50 °FClear.6 mph67%30.39 "Hg10 mi
5:35 AM52 °FClear.6 mph67%30.38 "Hg10 mi
5:15 AM52 °FPassing clouds.6 mph67%30.39 "Hg10 mi
4:55 AM52 °FPassing clouds.6 mph67%30.40 "Hg10 mi
4:35 AM50 °FClear.6 mph67%30.39 "Hg10 mi
4:15 AM50 °FClear.8 mph67%30.39 "Hg10 mi
3:55 AM48 °FPassing clouds.7 mph66%30.40 "Hg10 mi
3:35 AM48 °FPassing clouds.6 mph66%30.40 "Hg10 mi
3:15 AM48 °FClear.5 mph66%30.40 "Hg10 mi
2:55 AM50 °FClear.6 mph62%30.41 "Hg10 mi
2:35 AM48 °FClear.5 mph66%30.40 "Hg10 mi
2:15 AM48 °FClear.7 mph66%30.40 "Hg10 mi
1:55 AM48 °FClear.5 mph66%30.40 "Hg10 mi
1:35 AM48 °FClear.5 mph66%30.40 "Hg10 mi
1:15 AM48 °FClear.5 mph66%30.41 "Hg10 mi
12:55 AM46 °FClear.6 mph71%30.41 "Hg10 mi
12:35 AM37 °FClear.5 mph75%30.41 "Hg10 mi
12:15 AM43 °FClear.3 mph66%30.42 "Hg10 mi
11:55 PM
Sep 19
39 °FClear.5 mph70%30.42 "Hg10 mi
11:35 PM36 °FClear.5 mph75%30.44 "Hg10 mi
10:55 PM36 °FClear.No wind75%30.45 "Hg10 mi
10:35 PM37 °FClear.3 mph70%30.45 "Hg10 mi
10:15 PM37 °FClear.No wind70%30.44 "Hg10 mi
Weather by CustomWeather, © 2014

See weather overviewHow to use our weather pages